Location: Bannatyne
(13.0833°N, 59.5333°W)
Time: 15:20:18
(UTC+00:00)

Vanguard 3 - Pass Details

Date: 27 January 2020
Orbit: 508 x 3263 km, 33.3° (Epoch: 25 February)

Event Time Altitude Azimuth Distance (km) Brightness Sun altitude
Rises 06:08:37 0° 281° (W) 4,652 - -61.2°
Reaches altitude 10° 06:13:56 10° 259° (W) 3,046 - -59.9°
Maximum altitude 06:17:28 14° 229° (SW) 2,349 - -59.1°
Drops below altitude 10° 06:20:20 10° 197° (SSW) 2,335 - -58.4°
Sets 06:23:30 0° 170° (S) 2,953 - -57.6°
